Regional Weather Roundup
Issued by NWS

Home | Current Version | Previous Version | Text Only | Print | Product List | Glossary On
Versions: 1 2 3 4 5 6 7 8 9 10 11 12 13 14 15 16 17 18 19 20 21 22 23 24 25 26 27 28 29 30 31 32 33 34 35 36 37 38 39 40 41 42
000
ASUS46 KPQR 260210
RWROR

OREGON REGIONAL WEATHER ROUNDUP
NATIONAL WEATHER SERVICE PORTLAND OR
600 PM PST THU DEC 25 2014

NOTE: "FAIR" INDICATES FEW OR NO CLOUDS BELOW 12,000 FEET WITH
NO SIGNIFICANT WEATHER AND/OR OBSTRUCTIONS TO VISIBILITY.

ORZ001>013-260300-
NORTHWEST OREGON


CITY           SKY/WX    TMP DP  RH WIND       PRES   REMARKS
ASTORIA        MOCLDY    45  43  93 S3        30.26R
NEWPORT        LGT RAIN  45  45 100 CALM      30.31S
PORTLAND       CLOUDY    45  42  89 CALM      30.27R
VANCOUVER WA   MOCLDY    43  41  93 CALM      30.26R
SCAPPOOSE      LGT RAIN  44  42  93 CALM      30.25S
HILLSBORO      MOCLDY    41  41 100 CALM      30.25S
AURORA         CLOUDY    44  41  89 CALM      30.27S
MCMINNVILLE    PTCLDY    43  39  86 SW7       30.27S
SALEM          CLOUDY    45  40  82 CALM      30.26R
CORVALLIS      CLOUDY    45  39  81 CALM      30.29R
EUGENE         CLOUDY    45  40  82 CALM      30.28R
$$

ORZ021-028-260300-
SOUTHWEST OREGON


CITY           SKY/WX    TMP DP  RH WIND       PRES   REMARKS
NORTH BEND     CLOUDY    46  46 100 SE5       30.32R
BROOKINGS      CLEAR     43  42  96 CALM      30.29R
ROSEBURG       PTCLDY    43  40  89 CALM      30.29R
SEXTON SUMMIT  LGT SNOW  31  30  96 CALM      30.19S FOG
MEDFORD        CLEAR     40  35  83 CALM      30.26S
$$

ORZ014>016-041-260300-
COLUMBIA GORGE


CITY           SKY/WX    TMP DP  RH WIND       PRES   REMARKS
TROUTDALE      MOCLDY    42  40  92 CALM      30.25S
THE DALLES     PTCLDY    45  35  68 W8        30.19R
$$

ORZ029>031-041-044-049-050-061>064-502-503-505>511-260300-
EASTERN OREGON


CITY           SKY/WX    TMP DP  RH WIND       PRES   REMARKS
REDMOND        CLOUDY    34  27  75 W6        30.15R WCI  29
BEND           MOCLDY    32  25  74 NW5       30.15S WCI  27
PRINEVILLE     CLOUDY    36  28  75 W5        30.15R WCI  32
KLAMATH FALLS  CLEAR     42  23  46 NW13      30.14R
LAKEVIEW       CLOUDY    30  23  74 N7        30.09S WCI  23
HERMISTON      CLOUDY    38  33  82 S5        30.16R WCI  34
PENDLETON      CLOUDY    38  32  79 CALM      30.14R
JOHN DAY       CLOUDY    32  28  83 W7        30.10S WCI  26
MEACHAM        MIX PCPN  30  28  92 CALM      30.07R
LA GRANDE      CLOUDY    36  21  55 W7        30.10R WCI  30
BAKER CITY     MOCLDY    27  23  85 N6        30.08R WCI  20
BURNS          MOCLDY    30  20  66 NW10      30.08R WCI  21
ROME             N/A     32  19  58 NW12      30.03R WCI  23
ONTARIO        CLEAR     35  23  61 NW14      30.10R WCI  26
$$


USA.gov is the U.S. government's official web portal to all federal, state and local government web resources and services.